Location: Blankensee
(53.5126°N, 14.3055°E)
Time: 17:18:28
(UTC+00:00)

Cosmos 1707 - Pass Details

Date: 08 August 2020
Orbit: 515 x 531 km, 82.5° (Epoch: 19 September)

Event Time Altitude Azimuth Distance (km) Brightness Sun altitude
Rises 00:58:59 0° 337° (NNW) 2,689 6.9 -16.5°
Reaches altitude 10° 01:01:38 10° 318° (NW) 1,793 5.7 -16.3°
Maximum altitude 01:04:22 18° 274° (W) 1,337 4.5 -16.1°
Enters shadow 01:04:58 18° 262° (W) 1,360 4.5 -16.1°
